Lid_Strength_Index
17 18 20 20 20 20 20 21 21 20 19 20 20 20 17 16 18 17 16 17 17 16 14 14 13 13 13 12 12 12 12 11 11 10 10 10 10 9 8 8 8 7 7 7
18 20 19 18 19 19 20 20 21 20 19 20 20 20 16 16 17 17 16 17 16 16 15 14 14 14 13 13 13 12 12 11 11 10 10 10 9 9 9 8 8 7 7 7
19 20 18 19 20 19 21 21 21 21 20 21 22 20 17 18 18 17 17 17 17 16 15 15 14 14 13 13 13 12 12 11 11 11 10 10 9 9 9 9 9 8 8 7
20 19 19 20 20 20 20 20 20 21 21 21 21 22 18 19 18 17 16 17 17 17 16 15 15 14 14 13 13 12 12 12 11 11 11 11 11 12 10 10 9 9 8 8
20 20 20 20 20 19 20 20 20 21 22 23 23 23 19 19 17 16 16 16 16 16 16 16 15 14 14 13 13 12 12 12 11 11 11 11 11 11 10 10 10 9 9 9
21 19 20 20 19 19 19 20 20 22 22 25 24 23 20 18 17 17 16 16 16 16 16 15 15 14 14 13 13 12 12 12 11 11 11 11 11 11 11 11 11 10 10 9
21 21 21 20 21 20 20 21 23 24 25 23 24 24 19 17 16 17 16 16 16 16 16 16 15 15 14 13 13 13 13 12 12 11 11 11 11 11 11 11 11 11 11 10
23 23 21 20 21 21 21 22 23 26 26 24 23 24 18 16 17 16 16 16 16 16 16 16 15 15 14 13 13 13 13 13 12 12 11 11 11 11 11 11 11 11 11 11
23 22 20 18 20 20 21 23 22 25 28 26 23 20 17 16 16 16 16 16 16 16 16 16 15 15 14 14 14 14 14 13 12 12 12 12 12 12 12 12 11 11 10 10
20 23 20 19 20 20 20 19 23 24 27 28 23 22 19 16 16 16 16 16 16 16 16 16 15 15 15 14 14 14 14 13 12 12 12 12 12 12 12 12 12 12 11 11
24 21 22 21 23 22 22 23 23 23 23 25 27 22 18 17 16 16 15 16 16 16 16 15 15 15 15 15 15 15 14 13 13 13 13 13 13 13 12 12 12 12 11 11
19 22 24 23 21 20 21 21 21 23 25 25 24 23 17 16 16 17 16 16 16 15 15 15 16 15 15 15 15 15 14 13 13 13 14 14 13 13 13 13 12 11 11 11
20 23 27 24 23 22 24 21 20 21 22 26 24 21 17 17 17 16 16 16 15 15 15 15 16 16 15 16 16 15 14 14 14 14 14 14 14 14 13 13 12 11 11 11
16 23 22 21 21 23 26 25 22 23 27 24 23 19 16 14 14 15 16 16 16 15 15 15 16 16 16 16 16 15 14 14 15 15 15 15 14 14 13 13 12 12 11 12
20 24 25 24 23 24 24 26 23 22 20 22 18 20 16 15 14 15 16 17 16 16 16 16 16 16 16 16 16 15 15 15 15 16 15 15 14 13 13 13 12 12 12 12
21 25 26 27 23 22 24 22 23 21 20 20 19 20 15 14 14 14 14 15 16 15 15 16 16 16 16 16 16 15 15 15 15 16 15 15 14 14 13 12 12 12 12 12
22 25 26 25 23 23 24 22 22 21 20 19 21 17 14 14 14 14 15 16 16 15 15 16 15 15 15 15 15 15 15 16 16 15 15 15 14 14 13 13 12 13 13 12
20 22 21 24 24 24 19 20 20 19 17 17 16 15 14 14 16 16 16 15 14 14 15 15 15 15 15 15 14 15 16 16 15 15 15 14 14 14 13 13 13 13 14 14
18 19 22 22 28 21 18 21 20 21 18 17 17 16 15 16 16 14 14 14 14 14 14 15 15 15 15 15 15 15 16 16 16 15 15 16 14 14 13 13 13 14 15 15
18 17 17 23 22 25 18 17 17 17 18 14 15 15 15 16 17 15 14 15 15 15 15 15 15 15 15 15 15 15 16 16 16 15 15 16 14 14 13 13 13 14 15 15
21 22 21 19 21 22 17 17 17 19 16 13 13 13 17 16 14 14 15 15 15 14 14 15 16 15 15 15 15 15 16 17 16 15 17 15 14 13 12 13 15 15 15 15
20 21 22 20 21 21 16 18 17 13 13 14 15 15 15 15 15 15 15 15 15 14 16 15 15 15 15 15 15 16 16 16 17 16 19 15 14 13 13 13 13 14 15 16
18 17 19 18 17 14 15 14 13 13 12 14 14 14 14 15 15 14 14 15 16 16 15 16 15 16 17 17 15 16 15 17 17 17 20 15 14 13 13 13 13 15 16 16
17 14 18 17 14 16 15 13 13 14 13 13 14 14 14 14 14 14 14 14 15 15 16 17 17 16 16 17 16 15 17 17 16 17 21 16 15 14 13 13 13 15 17 16
11 14 14 18 14 14 14 14 13 13 13 14 13 13 13 13 12 12 13 14 14 15 16 17 16 15 15 16 15 16 17 16 16 17 20 17 15 14 14 13 13 13 16 14
13 14 14 13 10 10 8 9 9 11 12 11 12 13 13 12 11 12 14 14 14 15 16 17 16 16 15 16 15 16 16 15 15 17 18 17 15 14 14 14 14 12 12 12